Location: Asheville, NC
(35.6000°N, 82.5500°W)
Time: 09:24:50

AO-73 - Pass Details

Date: 18 March 2018
Orbit: 582 x 666 km, 97.6° (Epoch: 20 March)

Event Time Altitude Azimuth Distance (km) Brightness Sun altitude
Rises 20:32:52 0° 158° (SSE) 2,858 ? -11.5°
Reaches altitude 10° 20:35:04 10° 155° (SSE) 1,945 ? -11.9°
Maximum altitude 20:39:13 59° 75° (ENE) 689 ? -12.7°
Drops below altitude 10° 20:43:18 10° 357° (N) 1,920 ? -13.6°
Sets 20:45:28 0° 353° (N) 2,817 ? -14.0°
